Location: Baili�vre
(50.0696°N, 4.2409°E)
Time: 06:35:11
(UTC+00:00)

Cosmos 2322 Rocket - Pass Details

Date: 08 August 2020
Orbit: 831 x 852 km, 71.0° (Epoch: 23 September)

Event Time Altitude Azimuth Distance (km) Brightness Sun altitude
Rises 20:11:07 0° 333° (NNW) 3,415 6.7 -8.7°
Reaches altitude 10° 20:14:11 10° 349° (N) 2,481 5.4 -9.1°
Maximum altitude 20:18:28 21° 38° (NE) 1,809 4.0 -9.6°
Drops below altitude 10° 20:22:46 10° 87° (E) 2,481 4.2 -10.1°
Enters shadow 20:23:50 - 94° (E) 2,786 4.4 -10.3°
